Dewpoint
58 58 58 57 57 57 57 56 56 55 55 55 55 56 55 54 53 52 51 50 52 52 50 50 52 51 51 54 57 60 61 61 59 58 58 58 58 58 56 56 55 55 55
58 58 57 57 57 57 56 56 56 56 56 55 55 55 55 54 54 53 52 51 51 53 54 53 51 51 52 52 53 57 59 61 61 60 59 58 58 58 59 58 58 58 58
58 58 57 57 56 56 56 56 56 56 55 55 55 54 54 54 53 53 52 51 51 51 52 54 55 54 53 53 53 55 55 57 60 61 60 60 59 59 59 59 59 59 59
58 57 57 56 56 56 55 55 54 54 54 54 53 53 53 53 53 53 52 52 51 50 50 51 54 55 55 55 54 54 56 56 57 58 60 61 60 60 60 60 60 60 60
56 56 55 55 55 55 54 54 53 53 53 54 53 53 53 53 53 53 52 52 51 51 51 51 51 52 54 55 55 55 56 57 56 57 57 58 59 60 61 60 60 60 60
55 55 55 55 55 55 55 55 55 55 54 54 54 54 54 54 54 53 53 53 52 52 51 51 51 51 51 52 53 55 56 58 58 58 57 57 57 58 59 59 60 60 60
47 48 48 48 49 51 51 52 53 54 53 54 54 53 54 54 54 54 54 54 53 53 53 53 52 51 51 52 52 53 55 56 58 59 59 58 58 57 57 57 58 59 60
42 41 42 42 42 43 42 42 45 46 48 50 52 52 50 49 50 54 54 54 54 54 54 53 53 53 52 52 51 52 53 54 56 57 58 59 59 59 58 58 57 57 57
40 40 41 41 41 41 40 41 41 42 41 42 45 47 46 44 49 49 50 52 53 54 54 54 54 53 53 53 53 52 52 52 53 55 56 58 59 60 60 59 59 58 58
39 38 39 40 39 40 38 38 38 40 41 40 41 41 44 44 41 40 40 46 47 49 50 50 52 53 53 54 54 53 52 52 53 54 55 56 57 58 58 60 60 60 59
38 36 37 37 36 36 35 37 37 38 38 39 40 41 42 43 43 43 41 40 43 43 46 47 49 50 52 53 54 54 54 53 54 55 56 57 57 57 58 58 59 60 60
35 31 33 32 32 30 31 31 35 34 34 37 39 41 42 40 39 40 39 39 40 41 42 43 44 45 47 50 53 54 54 54 54 55 56 58 59 58 59 60 59 60 60
28 26 27 26 24 23 24 26 33 30 29 33 37 41 33 35 35 37 39 38 39 40 39 38 38 40 44 47 48 50 51 52 53 53 54 55 56 58 60 59 60 59 59
25 24 23 21 18 16 18 20 28 24 21 30 37 27 28 29 33 37 40 40 33 33 32 32 33 33 37 42 44 42 42 43 46 47 48 50 54 55 56 56 57 59 59
17 18 19 18 16 15 15 18 22 14 18 28 22 23 27 32 37 37 36 31 31 28 29 29 27 27 30 35 39 36 33 33 43 47 49 49 51 52 54 55 56 57 58
17 16 15 15 13 14 14 16 15 14 16 20 19 23 28 30 29 29 29 27 27 29 29 26 24 24 29 35 34 32 31 41 36 34 37 44 48 50 52 53 55 55 55
15 13 13 13 12 11 12 12 11 11 16 18 21 23 28 23 21 21 19 23 27 25 24 24 27 27 33 31 30 30 33 33 36 38 37 44 45 47 49 50 52 53 54
13 13 12 11 10 11 12 11 11 14 17 19 20 24 23 19 18 17 18 22 25 25 26 26 26 33 28 28 30 31 32 33 34 36 37 42 39 42 46 49 51 51 52
12 11 11 10 10 11 11 11 13 17 19 20 20 21 19 19 19 20 23 24 26 26 28 30 27 26 27 27 28 28 29 31 32 34 34 36 37 40 41 43 46 49 51
12 11 11 11 11 11 12 12 18 20 20 21 21 20 20 20 20 23 23 25 26 27 28 27 28 26 25 25 27 26 25 28 29 30 31 33 35 37 40 42 44 47 50
12 12 11 11 11 12 9 18 20 21 21 21 21 21 21 22 24 24 24 25 26 26 29 27 25 25 26 26 25 25 25 26 28 29 30 32 34 37 41 39 39 45 48
11 12 11 11 11 11 16 20 22 22 22 22 21 22 22 23 23 24 27 24 24 24 26 28 27 25 24 23 25 27 28 28 28 31 32 34 33 34 35 37 39 40 42
12 11 11 11 11 13 17 20 22 22 22 21 21 22 23 23 25 29 25 23 27 30 24 24 25 27 27 26 27 30 30 30 31 34 33 30 33 34 36 37 38 39 41
12 11 11 12 12 13 18 21 23 21 21 20 21 22 23 25 26 22 23 31 27 21 21 25 24 23 24 28 30 32 32 32 31 32 32 31 32 34 36 38 39 40 42
12 11 12 12 13 14 18 21 22 21 20 20 21 22 26 22 20 23 31 27 20 21 22 22 23 25 26 26 26 29 29 28 27 27 29 32 34 33 34 39 40 41 42
13 13 13 13 14 15 18 21 21 20 20 21 23 25 21 19 20 30 22 20 20 20 23 24 24 24 24 25 25 28 30 28 27 26 29 30 30 30 31 34 34 34 36
Wind_Speed
11 9 10 9 11 10 11 12 12 13 14 15 15 16 17 18 18 16 16 19 24 26 29 30 30 31 32 33 32 31 30 31 31 31 30 30 29 29 30 30 30 30 30
10 10 11 11 11 10 11 12 13 15 15 15 17 17 19 18 19 19 18 19 23 27 29 30 31 33 33 35 35 34 33 34 35 34 34 34 34 33 33 32 32 31 31
10 11 11 12 12 11 13 12 14 13 15 15 18 18 18 20 20 22 21 20 20 24 30 32 33 34 36 36 37 36 36 36 35 36 37 37 36 36 36 36 36 35 34
9 11 11 13 11 11 11 12 13 14 14 15 16 17 15 16 21 23 22 21 21 21 22 32 34 36 37 38 39 40 38 39 38 38 37 39 39 39 39 38 38 38 38
8 10 10 12 11 12 12 12 12 11 16 17 17 18 17 18 20 21 23 24 24 23 21 23 29 33 35 37 40 42 41 41 41 41 41 40 39 41 42 42 41 41 40
6 6 8 10 10 9 10 10 13 13 15 17 18 19 20 20 20 21 22 22 23 24 24 25 23 22 30 36 38 40 41 40 41 42 42 41 41 41 42 43 43 43 43
16 14 11 11 12 11 12 12 12 14 15 14 12 13 16 19 22 20 20 20 20 23 23 23 22 20 20 28 33 36 38 40 40 41 42 42 43 44 44 43 43 44 44
17 15 14 13 14 13 14 15 15 14 13 15 12 19 12 17 18 11 15 18 23 22 22 24 25 25 24 21 23 29 34 38 39 39 38 41 43 44 45 45 45 45 45
16 15 14 13 13 12 12 13 13 13 12 13 13 11 12 15 25 19 21 21 22 20 21 22 23 24 25 23 24 25 31 34 38 39 39 38 39 42 44 46 45 45 45
16 16 14 13 12 11 13 12 13 13 12 15 15 10 17 18 15 23 13 19 21 20 22 21 20 22 23 22 24 27 30 31 36 38 39 40 40 41 43 42 43 43 44
14 16 15 14 15 13 14 15 17 17 13 14 13 16 17 17 16 20 29 21 22 20 20 22 23 22 21 22 21 24 28 32 36 39 39 40 43 44 45 42 39 40 41
11 15 14 15 14 15 15 15 14 15 15 14 14 14 14 14 17 18 24 28 28 23 22 22 22 22 21 21 20 24 28 30 34 37 39 41 43 43 43 44 39 38 39
14 17 17 17 16 16 16 16 15 16 17 16 16 14 16 16 18 19 20 24 25 24 21 21 22 21 21 21 22 23 25 27 30 33 35 38 40 38 30 42 40 39 37
12 14 15 15 16 17 16 16 14 15 14 14 14 17 17 17 17 18 19 21 24 24 26 31 22 20 19 19 22 28 27 31 32 34 36 37 36 37 33 37 38 38 34
12 14 15 16 16 16 16 16 14 16 15 12 17 16 17 17 17 18 15 17 16 26 32 35 26 21 21 22 21 22 26 32 34 34 34 35 35 34 34 37 36 36 35
14 14 15 15 16 16 16 16 16 15 16 17 18 20 17 16 19 17 17 19 18 19 26 31 31 27 24 19 22 25 28 27 31 36 35 34 33 35 34 34 35 36 38
13 13 14 15 15 17 17 18 18 17 20 20 19 21 18 21 20 19 19 18 19 18 24 35 25 29 26 27 27 26 24 29 25 28 33 32 34 34 34 33 33 34 37
12 12 13 14 16 17 17 18 18 19 20 22 22 20 21 21 23 22 20 22 21 22 22 30 30 24 29 27 27 29 25 23 27 29 32 30 34 35 31 29 29 30 32
12 14 15 16 17 17 19 18 19 21 21 22 22 21 24 24 25 22 23 23 20 21 22 23 30 27 27 26 27 26 27 26 24 28 30 31 33 32 34 33 32 29 27
13 15 15 15 17 18 18 18 22 23 23 22 23 23 25 25 25 26 25 23 23 24 23 24 25 26 26 26 24 26 28 23 26 23 29 31 33 32 33 31 30 30 29
13 14 15 16 17 17 16 23 23 24 25 26 25 25 24 25 30 28 25 26 26 25 24 25 27 26 26 25 28 26 27 27 27 26 26 24 23 23 21 25 26 25 24
14 15 17 17 18 17 23 25 26 24 25 25 25 26 25 27 26 32 32 35 34 29 30 28 31 29 32 30 29 28 28 27 31 22 26 23 22 26 25 25 28 28 31
16 17 17 18 20 21 24 27 28 23 23 24 25 25 26 23 28 26 31 34 32 30 33 31 31 27 29 31 30 32 29 30 29 23 27 30 26 27 26 26 34 34 30
16 18 19 20 22 20 25 27 28 24 23 25 25 26 26 26 26 32 30 28 27 29 30 26 27 29 30 31 32 31 28 28 28 27 23 26 24 27 26 25 31 33 29
18 19 18 21 22 22 24 26 27 24 23 25 23 25 23 28 32 37 32 29 33 32 27 33 35 38 37 39 36 27 24 24 28 28 18 20 21 26 26 25 22 24 23
19 19 21 19 20 22 22 26 28 22 24 23 24 23 28 31 37 31 34 30 30 31 31 32 29 28 27 27 33 25 25 26 27 29 10 13 20 18 11 4 6 9 14
Wind_Direction
255 260 262 263 265 267 266 272 274 277 277 277 271 268 270 269 268 265 266 256 253 256 257 257 255 254 255 255 254 255 252 243 237 237 240 241 240 240 243 241 240 240 240
259 265 272 269 271 274 281 282 281 283 283 281 278 271 271 270 268 267 265 266 253 254 256 258 258 257 256 255 255 253 254 252 245 239 237 236 235 236 236 239 241 239 239
265 270 279 285 286 286 289 287 284 280 281 281 276 278 274 272 271 269 265 262 264 251 251 254 255 254 255 255 255 253 252 252 252 243 241 240 238 237 235 234 235 236 237
276 278 280 282 290 291 289 283 280 277 272 271 272 273 266 263 265 265 264 259 256 255 250 248 249 250 250 251 252 252 251 250 249 250 246 240 238 237 238 238 237 237 236
278 275 289 299 306 299 292 289 287 278 293 293 288 283 278 270 271 273 268 265 261 256 257 257 247 248 250 252 254 253 252 250 249 248 247 246 242 238 237 237 237 236 236
338 330 328 329 323 313 316 316 306 303 293 299 300 295 292 283 276 270 271 269 264 262 260 261 263 258 251 253 255 255 254 254 252 250 249 247 246 245 243 240 238 238 237
53 47 40 28 17 12 1 355 343 330 320 313 298 291 282 283 273 270 267 269 271 269 266 263 258 258 260 252 253 256 257 256 253 253 251 248 246 246 245 244 243 240 239
47 44 37 29 23 15 13 7 4 348 330 336 317 308 305 305 289 284 283 275 274 274 272 265 264 263 261 261 257 252 252 256 258 258 254 251 248 247 246 246 245 245 244
44 39 33 27 21 19 10 0 359 357 333 327 334 309 311 305 317 302 300 289 286 284 280 280 278 273 270 269 263 259 255 253 255 259 257 255 251 250 249 247 245 243 242
37 29 24 20 16 9 5 356 351 347 344 335 335 331 314 308 310 309 296 308 299 308 305 299 290 287 279 271 267 261 258 256 258 263 263 259 255 253 250 248 247 246 245
33 24 18 13 10 6 359 354 351 348 343 331 327 320 316 317 310 311 309 313 298 293 297 297 291 298 300 288 273 272 267 261 266 271 271 267 262 260 257 253 248 245 244
20 18 13 11 7 1 355 348 344 342 337 331 327 325 324 320 312 309 303 307 304 303 303 298 291 287 290 295 289 276 270 267 269 273 276 278 277 270 263 259 252 250 246
11 7 6 4 360 354 349 345 343 341 335 330 328 330 325 315 312 305 300 299 298 305 305 304 306 304 306 307 305 321 316 301 291 287 286 284 280 283 279 282 259 254 256
6 2 359 358 355 353 350 346 338 334 329 325 331 325 317 312 308 307 301 312 321 312 307 301 304 308 302 304 308 318 313 309 301 296 292 288 284 280 279 276 281 272 270
3 358 358 353 349 346 345 341 334 330 329 330 325 320 317 314 311 310 322 315 312 308 304 301 304 307 302 299 295 313 306 300 294 294 292 292 289 284 277 271 270 272 265
2 357 351 347 343 339 337 335 332 327 332 328 325 322 316 321 314 313 308 303 297 290 296 296 301 304 302 306 307 309 303 299 303 298 295 292 291 288 281 273 265 263 264
354 351 345 339 338 337 337 335 332 329 327 323 321 318 313 318 311 309 304 297 292 300 289 289 291 301 300 306 308 303 299 293 288 291 293 293 293 292 290 285 275 268 262
345 341 340 341 340 335 332 329 327 327 324 322 321 315 312 313 310 307 306 305 300 296 288 291 296 302 304 305 299 297 295 294 295 292 291 295 302 295 294 291 287 274 268
345 346 344 340 335 332 330 327 326 323 322 319 318 313 313 315 313 313 309 303 300 301 297 298 300 299 298 301 299 298 298 295 290 291 296 295 294 294 295 290 288 282 273
342 340 337 333 332 330 327 329 326 323 320 317 316 314 313 313 312 311 308 305 306 303 298 295 291 294 296 298 295 299 298 293 292 293 289 288 289 290 290 291 287 279 271
336 331 331 335 333 330 331 328 325 324 321 319 318 315 312 309 310 310 308 313 307 304 301 299 297 295 294 300 297 295 286 287 283 280 279 277 286 285 279 295 290 293 276
334 333 337 333 330 328 326 327 327 320 318 318 314 312 311 311 310 311 310 308 304 309 305 303 301 299 297 294 292 289 286 288 288 281 281 276 287 277 277 278 278 283 285
334 336 332 329 329 326 325 324 323 317 318 312 311 310 309 310 311 305 301 301 301 302 302 300 297 293 295 293 295 294 289 285 279 280 281 285 282 274 271 268 269 270 270
331 329 329 328 323 320 320 322 322 321 314 313 312 310 308 308 307 309 306 307 307 310 305 302 296 294 290 287 288 289 291 294 289 281 282 282 284 274 273 262 261 265 266
329 328 325 322 319 315 320 323 325 321 317 315 314 311 309 310 311 314 314 317 315 309 307 303 300 299 300 299 297 295 291 290 288 287 285 278 280 278 271 258 250 258 267
323 320 319 315 308 312 316 322 327 323 317 316 312 313 312 312 311 318 320 319 313 309 309 312 310 307 303 295 298 290 286 277 287 289 287 300 296 301 299 274 257 273 278